Lunedi 17 Giugno 2019

 
Calliano - Provincia di Trento

189 mslm

45° 55' 59'' N 11° 05' 53'' E

Pagine realizzate e gestite da Andrea Pernecher

 

Tutti gli orari sono riferiti all'ora solare (GMT+1h)

>stazione meteo :: i dati del giorno  

 Dati relativi a LUNEDI 17 GIUGNO 2019 ORE 16.14
 

 TEMPERATURA

33,5 °C

 

 ESCURS. TERMICA 13,3 °C

 

 

 TEMPERATURA MIN

20,5 °C

alle 06:19

 

 TEMPERATURA MAX 33,8 °C

alle 16:00

 

 TEMP.MEDIA INTEG.

25.9 °C

       
 

 PRESSIONE

1.010 mbar

 

 UMIDITA' 21 %

 

 PIOGGIA

0,0 mm

 

 INTENS. PIOGGIA 0,0 mm/h

 

 VENTO MAX

10,9 m/s

N

 

 INDICE DI CALORE

31,5 °C

 
Immagini WebCam
ORE 8.00 ORE 12.00 ORE 16.00

> visualizza webcam 24 ore

 

 Dettaglio rilevazioni di Lunedi 17 Giugno 2019 (ogni 15 minuti)
Ora Temperatura °C Umidità R. % Pressione mbar Vento m/s Indice di calore °C Pioggia totale caduta mm Intensità della pioggia mm/h
  TEMPERATURA UMIDITA' PRESSIONE VENTO IND. CALORE PIOGGIA INTENS. PIOGGIA
16:00 33,8 21 1.010 2,2 S 31,8 0,0 0,0
15:45 33,4 21 1.010 2,6 S 31,4 0,0 0,0
15:30 33,3 21 1.010 2,8 SSW 31,3 0,0 0,0
15:15 33,4 21 1.010 0,0 E 31,4 0,0 0,0
15:00 33,0 23 1.010 2,6 ENE 31,2 0,0 0,0
14:45 32,3 27 1.011 1,6 ESE 30,8 0,0 0,0
14:30 31,6 26 1.011 3,4 ESE 30,0 0,0 0,0
14:15 31,5 28 1.011 4,7 SE 30,1 0,0 0,0
14:00 31,8 25 1.011 2,6 SE 30,1 0,0 0,0
13:45 32,5 25 1.011 3,9 ESE 30,8 0,0 0,0
13:30 32,8 23 1.011 2,8 ESE 31,0 0,0 0,0
13:15 32,7 23 1.011 2,6 ESE 30,9 0,0 0,0
13:00 32,4 23 1.012 2,6 SE 30,6 0,0 0,0
12:45 31,8 24 1.012 1,2 SSE 30,0 0,0 0,0
12:30 31,4 25 1.012 2,4 SSE 29,7 0,0 0,0
12:15 30,4 25 1.012 1,8 SE 28,8 0,0 0,0
12:00 29,6 28 1.013 1,0 SW 28,3 0,0 0,0
11:45 28,2 26 1.013 0,0 E 27,1 0,0 0,0
11:30 27,9 27 1.013 2,4 NE 26,9 0,0 0,0
11:15 27,6 27 1.013 2,8 NNE 26,7 0,0 0,0
11:00 27,2 28 1.013 3,6 NNE 26,5 0,0 0,0
10:45 26,9 30 1.014 3,4 NNE 26,4 0,0 0,0
10:30 26,5 30 1.014 2,6 NE 26,0 0,0 0,0
10:15 25,9 30 1.014 3,6 NNE 25,4 0,0 0,0
10:00 25,8 31 1.014 3,2 NNE 25,4 0,0 0,0
09:45 25,1 31 1.013 5,7 ENE 24,7 0,0 0,0
09:30 25,0 31 1.014 5,3 N 24,6 0,0 0,0
09:15 24,7 31 1.014 5,1 N 24,3 0,0 0,0
09:00 24,3 32 1.014 3,4 N 23,9 0,0 0,0
08:45 23,5 33 1.014 3,7 NNE 23,2 0,0 0,0
08:30 23,1 33 1.014 4,5 NNE 22,8 0,0 0,0
08:15 22,8 34 1.014 1,8 ENE 22,5 0,0 0,0
08:00 22,4 34 1.014 3,7 NNE 22,1 0,0 0,0
07:45 22,4 34 1.015 2,6 ENE 22,1 0,0 0,0
07:30 22,5 34 1.015 2,6 NE 22,2 0,0 0,0
07:15 22,0 35 1.014 2,6 E 21,7 0,0 0,0
07:00 21,8 36 1.014 1,8 NE 21,6 0,0 0,0
06:45 21,2 37 1.014 2,6 NE 21,0 0,0 0,0
06:30 20,6 37 1.014 2,4 NE 20,4 0,0 0,0
06:15 20,6 37 1.014 2,6 NNE 20,4 0,0 0,0
06:00 20,7 36 1.014 2,6 ENE 20,5 0,0 0,0
05:45 20,8 36 1.014 2,8 ENE 20,6 0,0 0,0
05:30 20,8 35 1.013 2,8 ENE 20,5 0,0 0,0
05:15 20,9 35 1.013 1,2 ENE 20,6 0,0 0,0
05:00 21,0 34 1.013 3,7 NE 20,7 0,0 0,0
04:45 21,2 34 1.013 1,2 NNE 20,9 0,0 0,0
04:30 21,4 33 1.013 1,6 NE 21,1 0,0 0,0
04:15 21,6 33 1.012 2,8 NNE 21,3 0,0 0,0
04:00 21,8 32 1.013 2,6 ENE 21,4 0,0 0,0
03:45 22,2 32 1.013 3,6 ENE 21,8 0,0 0,0
03:30 22,1 32 1.013 2,8 NE 21,7 0,0 0,0
03:15 22,5 31 1.012 2,8 NE 22,1 0,0 0,0
03:00 22,8 31 1.013 2,4 NE 22,4 0,0 0,0
02:45 22,8 30 1.013 1,8 NE 22,3 0,0 0,0
02:30 22,9 29 1.013 2,6 NE 22,4 0,0 0,0
02:15 23,3 28 1.013 2,4 NE 22,8 0,0 0,0
02:00 23,8 28 1.013 2,6 NE 23,3 0,0 0,0
01:45 24,3 27 1.012 2,8 N 23,7 0,0 0,0
01:30 24,3 27 1.012 3,9 NNW 23,7 0,0 0,0
01:15 23,9 28 1.012 4,3 ENE 23,4 0,0 0,0
01:00 24,1 27 1.012 3,7 NNE 23,5 0,0 0,0
00:45 24,1 27 1.012 1,4 NNW 23,5 0,0 0,0
00:30 24,8 26 1.012 2,4 N 24,2 0,0 0,0
00:15 25,0 26 1.012 3,7 NNE 24,4 0,0 0,0
00:00 25,0 26 1.012 5,3 NNE 24,4 0,0 0,0

 

 

Stampa paginastampa    torna in cima

 2002-2019 osservatoriocalliano.it